Location: Arpaise
(41.0333°N, 14.7333°E)
Time: 21:39:05
(UTC+00:00)

Cosmos 846 Rocket - Pass Details

Date: 25 January 2021
Orbit: 948 x 991 km, 82.9° (Epoch: 06 March)

Event Time Altitude Azimuth Distance (km) Brightness Sun altitude
Rises 18:42:43 0° 209° (SSW) 3,663 8.9 -28.8°
Reaches altitude 10° 18:45:25 10° 217° (SW) 2,713 8.2 -29.3°
Maximum altitude 18:51:09 38° 284° (WNW) 1,435 6.8 -30.4°
Drops below altitude 10° 18:56:52 10° 352° (N) 2,701 7.9 -31.5°
Sets 18:59:34 0° 0° (N) 3,646 8.5 -32.0°
